Regional Weather Roundup
Issued by NWS Mt. Holly, NJ

Home | Current Version | Previous Version | Text Only | Print | Product List | Glossary On
Versions: 1 2 3 4 5 6 7 8 9 10 11 12 13 14 15 16 17 18 19 20 21 22 23 24 25 26 27 28 29 30 31 32 33 34 35 36 37 38 39 40 41 42 43 44 45 46 47 48 49 50
000
ASUS41 KPHI 020412
RWRPHI

REGIONAL WEATHER ROUNDUP
NATIONAL WEATHER SERVICE MOUNT HOLLY NJ
1200 AM EDT SUN AUG 02 2015

NOTE:  "FAIR" INDICATES FEW OR NO CLOUDS BELOW 12,000 FEET WITH NO
SIGNIFICANT WEATHER AND/OR OBSTRUCTIONS TO VISIBILITY.

 * = STATION DOES NOT REPORT PRECIPITATION (E.G. RAIN, SNOW, ETC.)
        OR FOG.

NJZ015>026-020500-
SOUTHERN NEW JERSEY

CITY           SKY/WX    TMP DP  RH WIND       PRES   REMARKS
POMONA         CLOUDY    78  63  59 W5        29.88R
RIO GRANDE*    CLOUDY    73  64  73 SW9       29.89S
MILLVILLE      CLOUDY    72  66  81 CALM      29.88R
WRIGHTSTOWN    CLEAR     68  63  83 CALM      29.84F
MOUNT HOLLY    CLEAR     67  61  81 CALM      29.87S
TRENTON        PTCLDY    73  58  59 CALM      29.87R

$$
NJZ001>014-020500-
NORTHERN NEW JERSEY

CITY           SKY/WX    TMP DP  RH WIND       PRES   REMARKS
SUSSEX         CLEAR     62  57  83 CALM      29.89R
ANDOVER*         N/A     62  61  96 CALM      29.89S
MORRISTOWN     PTCLDY    64  59  82 CALM      29.86S
NEWARK         PTCLDY    77  57  50 W3        29.85S
TETERBORO      CLEAR     74  56  53 CALM      29.84S
CALDWELL       PTCLDY    71  57  61 CALM      29.86S
SOMERVILLE     PTCLDY    67  61  81 CALM      29.85S
ALLAIRE*       CLEAR     72  55  56 CALM      29.87S
TOMS RIVER*      N/A     66  63  88 CALM      29.87S

$$
PAZ043-044-047-054-055-060>062-066>071-020500-
EASTERN PENNSYLVANIA

CITY           SKY/WX    TMP DP  RH WIND       PRES   REMARKS
PHILADELPHIA   PTCLDY    81  57  43 NW8       29.88R
NORTH PHILA    CLEAR     74  57  55 CALM      29.88S
DOYLESTOWN     CLOUDY    70  59  68 CALM      29.88R
QUAKERTOWN*    PTCLDY    68  61  77 CALM      29.90S
POTTSTOWN      CLOUDY    71  60  68 CALM      29.89F
LANCASTER      PTCLDY    70  58  65 W3        29.89F
COATESVILLE    PTCLDY    72  57  60 W5        29.90S
READING        PTCLDY    70  60  70 CALM      29.88S
ALLENTOWN      PTCLDY    67  59  75 SW5       29.88S
MOUNT POCONO   CLEAR     59  54  83 NW7       29.94S
HAZLETON       CLEAR     59  55  88 CALM      29.96S
WILKES BARRE   CLEAR     62  57  83 SE5       29.91R

$$
DEZALL-MDZ008-012-015-019-020-020500-
DELAWARE AND EASTERN MARYLAND

CITY           SKY/WX    TMP DP  RH WIND       PRES   REMARKS
WILMINGTON     CLEAR     73  64  73 NW5       29.89R
DOVER          PTCLDY    75  71  86 S2        29.87R
GEORGETOWN     MOCLDY    71  69  93 SE5       29.90R
EASTON         CLEAR     75  71  86 CALM      29.92R
PATUXENT       CLEAR     75  69  81 W3        29.87S
OCEAN CITY     PTCLDY    79  72  79 NE10      29.89R
WALLOPS ISLAND PTCLDY    78  76  93 S12       29.88S
CAMBRIDGE      PTCLDY    73  70  88 CALM      29.87S
SALISBURY      CLOUDY    78  69  73 CALM      29.89R

$$
PAZ001-021-NYZ056-072-MDZ011-DCZ001-020500-
OTHER NEARBY LOCATIONS

CITY           SKY/WX    TMP DP  RH WIND       PRES   REMARKS
HARRISBURG     PTCLDY    74  61  63 N3        29.89S
STATE COLLEGE  PTCLDY    63  57  81 CALM      29.95S
WILLIAMSPORT   CLEAR     65  58  78 CALM      29.90R
BINGHAMTON     PTCLDY    64  53  67 CALM      29.92S
NEW YORK CITY  CLEAR     78  54  43 CALM      29.88S
BALTIMORE      PTCLDY    72  62  71 CALM      29.89S
WASHINGTON DC  PTCLDY    80  59  48 NW7       29.90R

$$


USA.gov is the U.S. government's official web portal to all federal, state and local government web resources and services.